Location: *
(43.0833°N, 13.0500°E)
Time: 08:18:14
(UTC+00:00)

Daily predictions for brighter satellites

Satellite Brightness Start Highest point End
(mag) Time Altitude Azimuth Time Altitude Azimuth Time Altitude Azimuth
Feng Yun 1-1 Rocket 4.3 16:07:14 10° SSE 16:12:45 60° ENE 16:18:09 10° N
Cosmos 1725 Rocket 4.2 16:08:14 10° N 16:14:35 81° W 16:20:53 10° S
USA 215 4.4 16:09:58 10° ENE 16:15:16 27° N 16:20:34 10° NW
CZ-4B R/B 4.2 16:13:38 10° NNW 16:15:57 18° WNW 16:18:18 10° WSW
Cosmos 2084 3.4 16:14:50 10° NNW 16:19:07 63° NE 16:23:17 10° SE
USA 229 DEB 3.8 16:13:38 10° SSW 16:20:01 58° ESE 16:26:40 10° NE
USA 229 3.8 16:13:46 10° SSW 16:20:07 58° ESE 16:26:46 10° NE
Cosmos 1607 4.1 16:15:35 10° NNW 16:21:40 52° NE 16:27:46 10° SE
BREEZE-M DEB (TANK) 3.9 16:12:30 10° W 16:24:36 56° NNW 16:28:10 10° ENE
Cosmos 1825 3.4 16:21:03 10° NNW 16:24:42 47° W 16:28:20 10° SSW
Cosmos 1656 4.1 16:20:04 10° S 16:25:13 40° ESE 16:30:20 10° NE
NOSS 3-1 (A) 4.0 16:20:42 10° S 16:25:32 33° ESE 16:30:56 10° NE
NOSS 3-1 (C) 3.5 16:20:26 10° SSW 16:25:42 54° ESE 16:31:43 10° NE
COSMO-SKYMED 1 3.8 16:23:17 10° NE 16:26:43 22° E 16:30:08 10° SE
Cosmos 1633 3.9 16:25:00 10° NNE 16:27:46 20° ENE 16:30:30 10° ESE
Sich 1 3.8 16:25:22 10° NNE 16:29:16 31° ENE 16:33:09 10° SE
PSLV R/B 4.5 16:25:05 10° N 16:29:17 65° WNW 16:33:27 10° SSW
Envisat 3.4 16:26:12 10° SE 16:30:53 39° ENE 16:35:35 10° N
TELKOM 3 3.2 16:31:50 10° NW 16:33:53 38° NNE 16:35:15 17° E
Cosmos 1356 Rocket 3.7 16:34:05 10° SSE 16:38:02 46° E 16:42:06 10° NNE
SeaSat 1 2.6 16:35:30 10° SE 16:40:17 53° ENE 16:45:05 10° NNW
PSLV R/B 3.0 16:37:48 10° WSW 16:40:17 52° S 16:42:04 16° ESE
SMAP 3.2 16:35:50 10° SSE 16:40:29 84° WSW 16:45:10 10° NNW
Cosmos 2219 3.3 16:38:09 10° NNW 16:43:49 86° WSW 16:49:25 10° SSE
Lacrosse 4 Rocket 2.0 16:43:35 10° S 16:47:18 35° ESE 16:49:57 16° NE
Cosmos 1869 3.2 16:45:15 10° S 16:49:11 80° E 16:53:08 10° N
YAOGAN 6 3.2 16:46:55 10° SE 16:50:02 31° ENE 16:53:09 10° N
Cosmos 2221 3.6 16:46:02 10° SSW 16:50:10 46° WNW 16:54:22 10° N
CSL-04 Rocket 4.2 16:47:14 10° SE 16:52:00 33° ENE 16:56:43 10° N
YAOGAN 1 3.4 16:49:37 10° SE 16:53:20 28° ENE 16:57:03 10° N
Cosmos 1980 Rocket 3.2 16:54:10 10° SSE 16:58:35 24° ESE 17:00:32 20° ENE
CORIOLIS 4.5 16:53:33 10° S 16:58:56 71° WSW 17:04:22 10° NNW
CZ-4 R/B 1.8 16:55:29 10° SE 16:59:23 40° ENE 17:03:14 10° N
Geosat 4.0 16:54:49 10° NNE 16:59:53 85° WNW 17:04:54 10° SSW
ERBS 2.2 16:57:57 10° SW 17:01:14 72° SE 17:02:51 28° NE
Cosmos 2034 Rocket 4.3 16:55:19 10° N 17:01:22 44° ENE 17:07:24 10° SSE
Cosmos 1238 Rocket 4.4 16:58:44 10° NNW 17:02:46 38° W 17:06:09 10° SSW
Cosmos 2227 Rocket 2.1 16:57:42 10° NNW 17:03:25 85° ENE 17:09:04 10° SSE
Cosmos 2297 Rocket 2.2 16:57:50 10° NNW 17:03:32 89° SW 17:09:11 10° SSE
NOSS 2-3 (C) 4.1 17:01:17 10° S 17:05:18 40° ESE 17:07:31 24° ENE
Cosmos 1680 Rocket 3.8 17:02:24 10° S 17:07:17 42° ESE 17:10:57 17° NE
Okean-O 2.9 17:04:35 10° S 17:09:00 70° WSW 17:13:27 10° NNW
FengYun 1-2 T 4.1 17:04:52 10° SSE 17:10:20 68° ENE 17:15:49 10° N
Ariane Rocket 4.0 17:14:23 25° ENE 17:14:23 25° ENE 17:18:04 10° N
SKYMED 2 3.4 17:10:42 10° NNE 17:15:04 74° ESE 17:19:23 10° S
Cosmos 2369 3.6 17:13:49 10° SSW 17:19:25 70° ESE 17:24:08 15° NNE
Tsikada Rocket 4.3 17:16:35 10° SSE 17:22:33 45° E 17:28:36 10° NNE
Cosmos 2263 Rocket 3.7 17:22:25 10° N 17:25:09 18° NNE 17:25:09 18° NNE
NOAA 15 4.5 17:23:02 10° SSE 17:28:19 73° ENE 17:33:37 10° N
Cosmos 2082 3.6 17:25:38 10° NNW 17:31:18 88° ENE 17:36:55 10° SSE
Cosmos 923 Rocket 3.9 17:26:40 10° SSW 17:31:54 88° WNW 17:36:20 15° NNE
Cosmos 2360 4.3 17:26:35 10° S 17:32:06 54° ESE 17:34:33 32° NE
Cosmos 1697 Rocket 2.6 17:32:21 10° SSW 17:38:00 89° W 17:42:02 20° NNE
Cosmos 1624 Rocket 4.3 17:33:53 10° N 17:38:59 44° ENE 17:39:08 43° ENE
Cosmos 2278 3.6 17:33:30 10° SSW 17:39:09 75° ESE 17:42:21 27° NNE
Cosmos 2056 Rocket 3.9 17:34:20 10° N 17:38:47 40° NE 17:38:47 40° NE
ATLAS 5 CENTAUR R/B 3.2 17:36:12 10° NW 17:41:59 53° WSW 17:48:30 10° SSE
Cosmos 1862 3.8 17:39:05 10° NNW 17:43:01 60° W 17:46:55 10° S
BREEZE-M DEB (TANK) 4.5 17:46:41 10° NW 17:47:37 16° NW 17:47:37 16° NW
Cosmos 1633 Rocket 3.9 17:50:07 10° NNW 17:54:24 51° W 17:58:41 10° S
IRS-1A Rocket 4.4 17:55:50 51° NE 17:55:50 51° NE 18:00:57 10° N
USA 215 3.5 17:56:07 43° ENE 17:57:20 48° NNE 18:03:32 10° NW
COSMO-SKYMED 1 4.2 17:59:00 10° N 18:02:57 34° WNW 18:06:51 10° SW
DMSP B5D1-3 4.4 18:03:21 37° NNE 18:05:27 86° WNW 18:10:37 10° SSW
Cosmos 1515 Rocket 4.2 18:03:49 10° S 18:07:01 47° SSW 18:07:01 47° SSW
NOSS 2-3 (E) 4.2 18:03:59 10° SW 18:08:16 57° NW 18:08:54 52° NNW
Cosmos 1328 Rocket 4.5 18:04:30 10° SSW 18:08:47 47° WNW 18:11:27 21° NNW
NOAA 11 4.2 18:04:47 10° S 18:10:12 78° WSW 18:15:40 10° NNW
Cosmos 1151 Rocket 3.9 18:07:20 10° SSW 18:11:32 48° WNW 18:13:22 29° NNW
NOSS 3-1 (A) 4.2 18:10:49 10° WSW 18:16:10 44° NW 18:18:59 28° N
NOSS 2-3 (D) 4.3 18:13:30 10° SW 18:17:46 51° NW 18:17:54 51° NW
Cosmos 1932 4.5 18:14:47 10° NW 18:21:22 86° WSW 18:22:24 66° SSE
Lacrosse 4 Rocket 3.4 18:22:45 10° WSW 18:26:03 23° NW 18:26:18 23° NW
Cosmos 1371 Rocket 4.4 18:24:16 10° NNW 18:29:08 60° W 18:29:08 60° W
CZ-4 R/B 4.2 18:31:45 10° SW 18:34:33 17° W 18:37:19 10° NW
Cosmos 1980 Rocket 2.8 18:36:42 10° SW 18:42:12 51° WNW 18:42:22 51° NW
CENTAUR R/B 4.4 18:52:19 10° NNW 18:56:35 25° N 18:56:35 25° N
Cosmos 2263 Rocket 4.2 19:05:18 10° NNW 19:06:53 20° NNW 19:06:53 20° NNW
